Location: Poughquag
(41.6090°N, 73.6820°W)
Time: 09:40:09
(UTC-04:00)

Explorer 11/Cluster Stage 4 - All Passes

Search period start: 14 October 2019 00:00
Search period end: 24 October 2019 00:00
Orbit: 467 x 1259 km, 28.8° (Epoch: 13 October)

Date Brightness Start Highest point End Pass type
(mag) Time Alt. Az. Time Alt. Az. Time Alt. Az.
14 Oct - 12:39:19 10° SSW 12:41:59 15° SSE 12:44:56 10° SE daylight
14 Oct - 14:25:31 10° SW 14:29:39 23° S 14:34:30 10° SE daylight
14 Oct - 16:13:22 10° SW 16:17:42 20° S 16:22:37 10° SSE daylight
14 Oct - 18:04:46 10° SSW 18:05:48 10° SSW 18:06:52 10° SSW daylight
15 Oct - 12:28:40 10° SSW 12:31:15 15° SSE 12:34:07 10° SE daylight
15 Oct - 14:15:04 10° SW 14:18:55 21° S 14:23:26 10° SE daylight
15 Oct - 16:03:06 10° SW 16:06:55 17° SSW 16:11:12 10° SSE daylight
16 Oct - 12:18:05 10° SSW 12:20:34 15° SSE 12:23:18 10° SE daylight
16 Oct - 14:04:39 10° SW 14:08:13 20° S 14:12:19 10° SE daylight
16 Oct - 15:52:58 10° SW 15:56:09 15° SSW 15:59:41 10° SSE daylight
17 Oct - 12:07:31 10° SSW 12:09:53 15° SSE 12:12:28 10° SE daylight
17 Oct - 13:54:18 10° SW 13:57:31 18° S 14:01:12 10° SE daylight
17 Oct - 15:43:06 10° SW 15:45:24 13° SSW 15:47:54 10° S daylight
18 Oct - 11:57:00 10° SSW 11:59:13 14° S 12:01:37 10° SE daylight
18 Oct - 13:44:01 10° SW 13:46:50 16° S 13:50:01 10° SSE daylight
18 Oct - 15:34:20 10° SSW 15:34:40 10° SSW 15:35:01 10° SSW daylight
19 Oct - 11:46:30 10° SSW 11:48:34 14° S 11:50:47 10° SE daylight
19 Oct - 13:33:50 10° SW 13:36:11 14° S 13:38:46 10° SSE daylight
20 Oct - 11:36:03 10° SSW 11:37:56 13° S 11:39:55 10° SSE daylight
20 Oct - 13:23:49 10° SSW 13:25:32 12° S 13:27:21 10° SSE daylight
21 Oct - 11:25:37 10° SSW 11:27:18 13° S 11:29:03 10° SSE daylight
21 Oct - 13:14:33 10° SSW 13:14:52 10° S 13:15:13 10° S daylight
22 Oct - 11:15:15 10° SSW 11:16:41 12° S 11:18:09 10° SSE daylight
23 Oct - 11:04:57 10° SSW 11:06:03 11° S 11:07:11 10° SSE daylight
